Weather History for KCWF - April, 2014

Change the Weather History Date:

Wednesday, April 23, 2014

  Actual Average Record
Temperature  
Mean Temperature 72 °F -  
Max Temperature 83 °F 80 °F 100 °F (2008)
Min Temperature 61 °F 64 °F 51 °F (2012)
Cooling Degree Days 6    
Growing Degree Days 22 (Base 50)    
Moisture  
Dew Point 63 °F    
Average Humidity 83    
Maximum Humidity 100    
Minimum Humidity 45    
Precipitation  
Precipitation 0.00 in - - ()
Sea Level Pressure  
Sea Level Pressure 29.94 in    
Wind  
Wind Speed 3 mph (SSE)    
Max Wind Speed 14 mph    
Max Gust Speed 16 mph    
Visibility 5 miles    
Events Fog    
Averages and records for this station are not official NWS values.
T = Trace of Precipitation, MM = Missing Value Source: NWS Daily Summary

Daily Weather History Graph

Daily Weather History Graph

Search for Another Location

Airport or City:

Trip Planner

Search our weather history database for the weather conditions in past years. The results will help you decide how hot, cold, wet, or windy it might be!

Date:

Astronomy

Apr. 23, 2014 Rise Set
Actual Time 6:37 AM CDT 7:45 PM CDT
Civil Twilight 6:12 AM CDT 8:10 PM CDT
Nautical Twilight 5:42 AM CDT 8:39 PM CDT
Astronomical Twilight 5:11 AM CDT 9:10 PM CDT
Moon 2:43 AM CDT (4/23) 2:18 PM CDT (4/23)
Length of Visible Light 13h 58m
Length of Day
13h 08m
Waning Crescent, 34% of the Moon is Illuminated
Apr 23
Waning Crescent
Apr 29
New
May 6
First Quarter
May 14
Full
May 21
Last Quarter

Hourly Weather History & Observations

Time (CDT) Temp. Heat Index Dew Point Humidity Pressure Visibility Wind Dir Wind Speed Gust Speed Precip Events Conditions
12:15 AM 65.3 °F - 65.3 °F 100% 29.96 in 0.2 mi SE 3.5 mph - N/A Fog Fog
12:35 AM 66.0 °F - 66.0 °F 100% 29.96 in 0.2 mi Calm Calm - N/A Fog Fog
12:55 AM 65.3 °F - 65.3 °F 100% 29.96 in 0.2 mi Calm Calm - N/A Fog Fog
1:15 AM 64.8 °F - 64.8 °F 100% 29.96 in 1.2 mi Calm Calm - N/A   Scattered Clouds
1:35 AM 63.7 °F - 63.7 °F 100% 29.96 in 0.2 mi Calm Calm - N/A Fog Fog
1:55 AM 63.0 °F - 63.0 °F 100% 29.95 in 0.2 mi Calm Calm - N/A Fog Fog
2:15 AM 62.8 °F - 62.8 °F 100% 29.95 in 0.2 mi Calm Calm - N/A Fog Fog
2:35 AM 61.7 °F - 61.7 °F 100% 29.95 in 0.2 mi Calm Calm - N/A Fog Fog
2:55 AM 61.7 °F - 61.7 °F 100% 29.94 in 0.2 mi Calm Calm - N/A Fog Fog
3:15 AM 62.4 °F - 62.4 °F 100% 29.94 in 0.2 mi Calm Calm - N/A Fog Fog
3:35 AM 62.2 °F - 62.2 °F 100% 29.95 in 0.5 mi Calm Calm - N/A Fog Fog
3:55 AM 61.9 °F - 61.9 °F 100% 29.95 in 0.2 mi Calm Calm - N/A Fog Fog
4:15 AM 61.9 °F - 61.9 °F 100% 29.95 in 0.2 mi Calm Calm - N/A Fog Fog
6:00 AM 64.4 °F - 64.4 °F 100% 29.96 in 0.2 mi Calm Calm - N/A Fog Fog
6:50 AM 66.2 °F - 66.2 °F 100% 29.97 in 0.2 mi Calm Calm - N/A Fog Fog
7:50 AM 66.2 °F - 66.2 °F 100% 29.97 in 0.2 mi Calm Calm - N/A Fog Fog
8:50 AM 68.0 °F - 68.0 °F 100% 29.99 in 1.0 mi Calm Calm - N/A Fog Fog
10:10 AM 71.6 °F - 51.8 °F 50% 30.02 in 7.0 mi Calm Calm - N/A   Mostly Cloudy
10:50 AM 73.4 °F - 66.2 °F 78% 30.02 in 10.0 mi East 4.6 mph - N/A   Mostly Cloudy
11:50 AM 78.8 °F - 62.6 °F 57% 30.00 in 10.0 mi SE 6.9 mph - N/A   Scattered Clouds
12:45 PM 82.4 °F 82.9 °F 60.8 °F 48% 29.98 in 10.0 mi SE 6.9 mph - N/A   Scattered Clouds
1:45 PM 82.4 °F 82.9 °F 60.8 °F 48% 29.98 in 10.0 mi SE 6.9 mph - N/A   Scattered Clouds
2:52 PM 80.6 °F 80.8 °F 57.2 °F 45% 29.94 in 10.0 mi ESE 5.8 mph - N/A   Scattered Clouds
3:55 PM 82.4 °F 83.4 °F 62.6 °F 51% 29.90 in 10.0 mi SSE 10.4 mph 16.1 mph N/A   Scattered Clouds
4:53 PM 78.8 °F - 60.8 °F 54% 29.89 in 10.0 mi South 9.2 mph - N/A   Scattered Clouds
5:45 PM 78.8 °F - 60.8 °F 54% 29.89 in 10.0 mi South 10.4 mph - N/A   Scattered Clouds
6:45 PM 77.0 °F - 60.8 °F 57% 29.89 in 10.0 mi SSW 13.8 mph - N/A   Clear
7:45 PM 73.4 °F - 62.6 °F 69% 29.89 in 10.0 mi South 6.9 mph - N/A   Clear
8:45 PM 71.6 °F - 62.6 °F 73% 29.90 in 10.0 mi SSW 4.6 mph - N/A   Clear
9:15 PM 69.8 °F - 62.8 °F 78% 29.91 in 10.0 mi SSW 4.6 mph - N/A   Clear
9:55 PM 66.6 °F - 62.1 °F 85% 29.92 in 10.0 mi South 3.5 mph - N/A   Clear
10:15 PM 67.3 °F - 63.5 °F 88% 29.93 in 10.0 mi SSW 5.8 mph - N/A   Clear
10:35 PM 68.9 °F - 63.7 °F 83% 29.92 in 10.0 mi South 6.9 mph - N/A   Clear
10:55 PM 68.5 °F - 64.0 °F 85% 29.93 in 10.0 mi South 6.9 mph - N/A   Clear
11:15 PM 67.8 °F - 63.7 °F 87% 29.92 in 10.0 mi SSE 4.6 mph - N/A   Clear
11:35 PM 64.2 °F - 61.7 °F 91% 29.92 in 4.0 mi SSE 5.8 mph - N/A   Clear
11:55 PM 64.0 °F - 63.5 °F 98% 29.92 in 4.0 mi South 5.8 mph - N/A   Clear